Date String (YYYY-MM-DD hh:mm:ss) UTC,Instrument flags,Ambient pressure (hPa),Sample flow (lpm),Bypass flow (lpm),Sample temperature (°C),Ambient temperature (°C),ASC tube jacket temperature (°C),LED temperature (°C),Box temperature (°C),Sample RH (%),Span deviation,Mass concentration (μg/m³),Mass concentration (μg/m³),Mass concentration (μg/m³)
DateTimeUTC,F1_M11,P_M11,Q1_M11,Q2_M11,T1_M11,T2_M11,T3_M11,T4_M11,T5_M11,U1_M11,ZSPAN_M11,X0_M11,X2_M11,X1_M11
2022-08-20 15:00:00,,0831.0,5.01,0.00,30.8,29.1,00.0,39.4,32.4,22.8,0000.0,0016.38,0006.08,0005.13
2022-08-20 15:01:00,,0831.0,4.99,0.00,30.7,28.4,00.0,39.4,32.3,23.0,0000.0,0016.48,0006.08,0005.15
2022-08-20 15:02:00,,0831.0,5.00,0.00,30.6,28.2,00.0,39.4,32.2,23.3,0000.0,0017.10,0006.11,0005.16
2022-08-20 15:03:00,,0831.1,4.99,0.00,30.5,28.2,00.0,39.3,32.1,23.5,0000.0,0017.36,0006.14,0005.17
2022-08-20 15:04:00,,0831.0,5.01,0.00,30.5,28.3,00.0,39.3,32.1,23.1,0000.0,0017.35,0006.12,0005.17
2022-08-20 15:05:00,,0831.1,5.01,0.00,30.4,28.4,00.0,39.3,32.1,22.8,0000.0,0017.34,0006.14,0005.18
2022-08-20 15:06:00,,0831.0,4.99,0.00,30.4,28.5,00.0,39.3,32.1,23.2,0000.0,0018.23,0006.23,0005.19
2022-08-20 15:07:00,,0831.0,5.00,0.00,30.4,28.7,00.0,39.3,32.1,23.2,0000.0,0018.27,0006.22,0005.18
2022-08-20 15:08:00,,0831.0,5.00,0.00,30.4,28.8,00.0,39.3,32.2,23.5,0000.0,0018.58,0006.19,0005.17
2022-08-20 15:09:00,,0831.0,4.99,0.00,30.4,28.9,00.0,39.3,32.2,23.3,0000.0,0018.66,0006.20,0005.17
2022-08-20 15:10:00,,0831.1,5.01,0.00,30.4,29.0,00.0,39.3,32.2,23.1,0000.0,0018.82,0006.22,0005.18
2022-08-20 15:11:00,,0831.1,5.00,0.00,30.4,29.1,00.0,39.3,32.2,23.5,0000.0,0017.68,0006.20,0005.18
2022-08-20 15:12:00,,0831.0,5.00,0.00,30.4,29.2,00.0,39.3,32.3,23.0,0000.0,0017.60,0006.23,0005.19
2022-08-20 15:13:00,,0831.0,5.00,0.00,30.5,29.3,00.0,39.3,32.3,23.2,0000.0,0016.83,0006.26,0005.19
2022-08-20 15:14:00,,0831.0,5.00,0.00,30.5,29.3,00.0,39.3,32.3,23.3,0000.0,0015.59,0006.29,0005.18
2022-08-20 15:15:00,,0831.0,5.00,0.00,30.5,29.4,00.0,39.3,32.4,22.9,0000.0,0014.89,0006.31,0005.18
2022-08-20 15:16:00,,0831.0,4.99,0.00,30.5,29.5,00.0,39.3,32.4,23.2,0000.0,0014.64,0006.31,0005.18
2022-08-20 15:17:00,,0831.0,4.99,0.00,30.5,29.5,00.0,39.3,32.4,23.2,0000.0,0013.59,0006.25,0005.17
2022-08-20 15:18:00,,0831.0,5.00,0.00,30.6,29.5,00.0,39.3,32.5,23.0,0000.0,0014.04,0006.31,0005.18
2022-08-20 15:19:00,,0831.0,5.01,0.00,30.6,29.6,00.0,39.3,32.5,22.9,0000.0,0015.04,0006.37,0005.18
2022-08-20 15:20:00,,0831.0,5.01,0.00,30.6,29.6,00.0,39.3,32.5,23.3,0000.0,0015.56,0006.35,0005.19
2022-08-20 15:21:00,,0831.0,4.99,0.00,30.6,29.7,00.0,39.4,32.5,23.4,0000.0,0015.16,0006.32,0005.18
2022-08-20 15:22:00,,0831.0,5.00,0.00,30.6,29.7,00.0,39.4,32.5,23.3,0000.0,0015.17,0006.34,0005.18
2022-08-20 15:23:00,,0831.0,5.01,0.00,30.7,29.7,00.0,39.4,32.5,23.8,0000.0,0014.62,0006.32,0005.18
2022-08-20 15:24:00,,0831.0,5.00,0.00,30.7,29.3,00.0,39.4,32.4,23.4,0000.0,0014.62,0006.31,0005.19
2022-08-20 15:25:00,,0831.0,5.00,0.00,30.6,28.4,00.0,39.3,32.2,22.9,0000.0,0014.47,0006.28,0005.22
2022-08-20 15:26:00,,0831.0,5.00,0.00,30.5,27.9,00.0,39.3,32.1,23.5,0000.0,0014.98,0006.31,0005.25
2022-08-20 15:27:00,,0831.0,5.01,0.00,30.4,27.8,00.0,39.2,32.0,24.0,0000.0,0015.35,0006.39,0005.28
2022-08-20 15:28:00,,0831.0,5.01,0.00,30.3,27.9,00.0,39.2,31.9,23.8,0000.0,0015.51,0006.45,0005.31
2022-08-20 15:29:00,,0831.0,4.99,0.00,30.3,28.0,00.0,39.2,31.9,23.6,0000.0,0015.70,0006.45,0005.35
2022-08-20 15:30:00,,0831.0,5.00,0.00,30.2,28.2,00.0,39.2,32.0,23.8,0000.0,0014.39,0006.47,0005.37
2022-08-20 15:31:00,,0831.0,5.00,0.00,30.2,28.4,00.0,39.1,32.0,23.9,0000.0,0013.87,0006.55,0005.41
2022-08-20 15:32:00,,0831.0,5.00,0.00,30.2,28.5,00.0,39.1,32.0,24.1,0000.0,0013.42,0006.60,0005.43
2022-08-20 15:33:00,,0831.0,5.00,0.00,30.2,28.6,00.0,39.1,32.0,24.8,0000.0,0014.28,0006.69,0005.45
2022-08-20 15:34:00,,0831.0,5.00,0.00,30.2,28.8,00.0,39.1,32.0,24.4,0000.0,0014.60,0006.75,0005.47
2022-08-20 15:35:00,,0831.1,4.99,0.00,30.3,28.9,00.0,39.1,32.1,24.3,0000.0,0014.93,0006.79,0005.50
2022-08-20 15:36:00,,0831.1,5.01,0.00,30.3,29.0,00.0,39.1,32.1,24.7,0000.0,0015.63,0006.82,0005.49
2022-08-20 15:37:00,,0831.1,5.00,0.00,30.3,29.0,00.0,39.1,32.1,24.3,0000.0,0016.34,0006.83,0005.49
2022-08-20 15:38:00,,0831.1,5.00,0.00,30.3,29.1,00.0,39.1,32.2,24.5,0000.0,0016.81,0006.82,0005.49
2022-08-20 15:39:00,,0831.1,5.00,0.00,30.3,29.2,00.0,39.1,32.2,23.9,0000.0,0016.72,0006.78,0005.47
2022-08-20 15:40:00,,0831.2,5.01,0.00,30.4,29.3,00.0,39.1,32.2,24.3,0000.0,0016.35,0006.74,0005.45
2022-08-20 15:41:00,,0831.1,5.00,0.00,30.4,29.3,00.0,39.1,32.3,24.5,0000.0,0017.12,0006.68,0005.43
2022-08-20 15:42:00,,0831.2,5.00,0.00,30.4,29.4,00.0,39.2,32.3,23.5,0000.0,0017.32,0006.61,0005.41
2022-08-20 15:43:00,,0831.1,5.00,0.00,30.4,29.4,00.0,39.2,32.3,23.5,0000.0,0018.13,0006.63,0005.41
2022-08-20 15:44:00,,0831.2,5.00,0.00,30.4,29.5,00.0,39.2,32.3,23.6,0000.0,0018.45,0006.59,0005.40
2022-08-20 15:45:00,,0831.2,5.00,0.00,30.5,29.5,00.0,39.2,32.4,23.7,0000.0,0019.82,0006.59,0005.41
2022-08-20 15:46:00,,0831.2,5.01,0.00,30.5,29.6,00.0,39.2,32.4,23.6,0000.0,0020.35,0006.58,0005.40
2022-08-20 15:47:00,,0831.2,5.00,0.00,30.5,29.6,00.0,39.2,32.4,24.1,0000.0,0020.48,0006.59,0005.41
2022-08-20 15:48:00,,0831.2,5.01,0.00,30.6,29.7,00.0,39.3,32.5,23.6,0000.0,0020.40,0006.60,0005.41
2022-08-20 15:49:00,,0831.2,4.99,0.00,30.6,29.4,00.0,39.2,32.4,23.5,0000.0,0020.50,0006.56,0005.41
2022-08-20 15:50:00,,0831.1,5.00,0.00,30.5,28.6,00.0,39.2,32.2,23.7,0000.0,0020.85,0006.54,0005.42
2022-08-20 15:51:00,,0831.1,4.99,0.00,30.4,28.2,00.0,39.2,32.1,23.8,0000.0,0020.63,0006.57,0005.43
2022-08-20 15:52:00,,0831.2,5.01,0.00,30.4,28.1,00.0,39.2,32.0,24.1,0000.0,0020.34,0006.60,0005.44
2022-08-20 15:53:00,,0831.1,4.98,0.00,30.3,28.1,00.0,39.1,32.0,24.2,0000.0,0020.26,0006.60,0005.45
2022-08-20 15:54:00,,0831.2,5.01,0.00,30.3,28.3,00.0,39.1,32.0,24.4,0000.0,0019.44,0006.59,0005.47
2022-08-20 15:55:00,,0831.2,4.99,0.00,30.2,28.4,00.0,39.1,32.0,24.4,0000.0,0018.94,0006.65,0005.48
2022-08-20 15:56:00,,0831.2,5.00,0.00,30.2,28.5,00.0,39.1,32.0,24.1,0000.0,0018.17,0006.65,0005.46
2022-08-20 15:57:00,,0831.2,5.00,0.00,30.3,28.7,00.0,39.1,32.1,24.3,0000.0,0017.32,0006.62,0005.45
2022-08-20 15:58:00,,0831.2,5.01,0.00,30.3,28.8,00.0,39.1,32.1,25.2,0000.0,0017.42,0006.61,0005.43
2022-08-20 15:59:00,,0831.2,4.99,0.00,30.3,28.9,00.0,39.1,32.1,24.9,0000.0,0016.68,0006.57,0005.43
